Terminal Aerodrome Forecast
Issued by NWS Raleigh/Durham, NC

Home | Current Version | Previous Version | Text Only | Print | Product List | Glossary On
Versions: 1 2 3 4 5 6 7 8 9 10 11 12 13 14 15 16 17 18 19 20 21 22 23 24 25 26 27 28 29 30 31 32
493
FTUS42 KRAH 142325
TAFRDU
TAF
KRDU 142325Z 1500/1524 00000KT P6SM FEW200
     FM150900 VRB02KT P6SM SCT050
     FM151100 VRB02KT P6SM BKN130
     FM151200 VRB02KT P6SM BKN018
     FM151600 00000KT P6SM OVC140=

USA.gov is the U.S. government's official web portal to all federal, state and local government web resources and services.